Regional Weather Roundup
Issued by NWS

Home | Current Version | Previous Version | Graphics & Text | Print | Product List | Glossary On
Versions: 1 2 3 4 5 6 7 8 9 10 11 12 13 14 15 16 17 18 19 20 21 22 23 24 25 26 27 28 29 30 31 32 33 34 35 36 37 38 39 40 41 42 43 44 45 46 47 48 49 50
000
ASUS43 KFSD 080910
RWRSD

WEATHER ROUNDUP FOR SOUTH DAKOTA
NATIONAL WEATHER SERVICE SIOUX FALLS SD
300 AM CST MON FEB 08 2016

NOTE: "FAIR" INDICATES FEW OR NO CLOUDS BELOW 12,000 FEET WITH NO
SIGNIFICANT WEATHER AND/OR OBSTRUCTIONS TO VISIBILITY.


SDZ001>005-009-010-012>017-081000-
NORTHWEST AND NORTH CENTRAL SOUTH DAKOTA

CITY           SKY/WX    TMP DP  RH WIND       PRES   REMARKS
BUFFALO          N/A     23  13  65 NW18      30.24R WCI   9
FAITH            N/A     24  14  65 NW20      30.24S WCI  10
MOBRIDGE       CLEAR     27  17  66 N22G32    30.15R WCI  13
$$

SDZ012>016-024>037-041>051-057-063-072>074-081000-
SOUTHWEST AND SOUTH CENTRAL SOUTH DAKOTA

CITY           SKY/WX    TMP DP  RH WIND       PRES   REMARKS
RAPID CTY ARPT CLEAR     28  10  46 NW23G33   30.28F WCI  14
PIERRE         CLEAR     28  17  63 NW28G40   30.18R WCI  13
CUSTER         CLEAR     21  -8  27 N24G40    30.19F WCI   4
ELLSWORTH AFB  CLEAR     29  10  45 NW23G32   30.28S WCI  15
PHILIP         CLEAR     28  17  63 NW18      30.27R WCI  15
PINE RIDGE     CLEAR     20   9  62 NW5       30.31S WCI  13
SPEARFISH      FAIR      25   9  50 W18       30.33R WCI  11
WINNER         FAIR      29  17  61 NW29G36   30.17R WCI  14
$$

SDZ004>011-016>023-039-040-081000-
NORTHEAST SOUTH DAKOTA

CITY           SKY/WX    TMP DP  RH WIND       PRES   REMARKS
ABERDEEN       CLOUDY    26  16  65 N23G32    30.09R WCI  11
WATERTOWN      FLURRIES  19  11  70 N32G39    29.98S WCI  -1
BROOKINGS      LGT SNOW  19  14  81 N31G43    29.95R WCI   0
SISSETON         N/A     17  13  84 N36G44    30.02R WCI  -4
$$

SDZ017-020-022-023-036>040-048>070-081000-
SOUTHEAST SOUTH DAKOTA

CITY           SKY/WX    TMP DP  RH WIND       PRES   REMARKS
SIOUX FALLS    CLOUDY    23  15  71 N31G40    29.99R WCI   5
HURON          CLOUDY    27  17  66 NW29G36   30.07R WCI  11
CHAMBERLAIN    MOCLDY    28  18  66 NW22G35   30.14R WCI  13
MITCHELL       CLOUDY    28  19  69 N24G41    30.09R WCI  14
YANKTON        CLOUDY   N/A N/A N/A NW35G44   30.03R
$$

ABBREVIATIONS USED IN REMARKS
   TC - TEMPERATURE IN CELSIUS
  WCI - WIND CHILL INDEX
   HX - HEAT INDEX
  VSB - VISIBILITY




USA.gov is the U.S. government's official web portal to all federal, state and local government web resources and services.